Destin, FL

2:17 PM CDT on May 22, 2018 (GMT -0500)
Destin-Fort Walton Beach

Weather History for KDTS - October, 2012

Change the Weather History Date:

Wednesday, October 3, 2012

  Actual Average Record
Temperature  
Mean Temperature 72 °F -  
Max Temperature 80 °F 80 °F 91 °F (2016)
Min Temperature 66 °F 64 °F 27 °F (2002)
Cooling Degree Days 8    
Growing Degree Days 22 (Base 50)    
Moisture  
Dew Point 62 °F    
Average Humidity 72    
Maximum Humidity 84    
Minimum Humidity 54    
Precipitation  
Precipitation 0.00 in - - ()
Sea Level Pressure  
Sea Level Pressure 30.09 in    
Wind  
Wind Speed 5 mph (NE)    
Max Wind Speed 7 mph    
Max Gust Speed -    
Visibility 10 miles    
Events      
Averages and records for this station are not official NWS values.
T = Trace of Precipitation, MM = Missing Value Source: NWS Daily Summary

Daily Weather History Graph

Daily Weather History Graph

Search for Another Location

Airport or City:

Astronomy

Oct. 03, 2012 Rise Set
Actual Time 6:40 AM CDT 6:28 PM CDT
Civil Twilight 6:16 AM CDT 6:52 PM CDT
Nautical Twilight 5:48 AM CDT 7:19 PM CDT
Astronomical Twilight 5:21 AM CDT 7:47 PM CDT
Moon 8:37 PM CDT (10/3) 9:47 AM CDT (10/3)
Length of Visible Light 12h 35m
Length of Day
11h 47m
Waning Gibbous, 88% of the Moon is Illuminated
Oct 3
Waning Gibbous
Oct 8
Last Quarter
Oct 15
New
Oct 21
First Quarter
Oct 29
Full

Hourly Weather History & Observations

Time (CDT) Temp. Dew Point Humidity Pressure Visibility Wind Dir Wind Speed Gust Speed Precip Events Conditions
12:53 AM 66.9 °F 60.1 °F 79% 30.01 in 10.0 mi NNE 5.8 mph - N/A   Clear
1:53 AM 66.9 °F 60.1 °F 79% 30.01 in 10.0 mi NNE 5.8 mph - N/A   Clear
2:53 AM 66.9 °F 60.1 °F 79% 30.01 in 10.0 mi NNE 5.8 mph - N/A   Clear
3:53 AM 66.0 °F 60.1 °F 81% 30.01 in 10.0 mi NNE 4.6 mph - N/A   Clear
4:53 AM 66.9 °F 59.0 °F 76% 30.04 in 10.0 mi NNE 4.6 mph - N/A   Clear
5:53 AM 66.0 °F 59.0 °F 78% 30.06 in 10.0 mi NE 4.6 mph - N/A   Clear
6:53 AM 66.9 °F 61.0 °F 81% 30.07 in 10.0 mi NE 3.5 mph - N/A   Clear
7:53 AM 68.0 °F 61.0 °F 78% 30.08 in 10.0 mi NNE 4.6 mph - N/A   Clear
8:53 AM 70.0 °F 61.0 °F 73% 30.11 in 10.0 mi NE 5.8 mph - N/A   Clear
9:53 AM 71.1 °F 62.1 °F 73% 30.12 in 10.0 mi NE 5.8 mph - N/A   Clear
10:53 AM 72.0 °F 62.1 °F 71% 30.12 in 10.0 mi NE 4.6 mph - N/A   Clear
11:53 AM 75.0 °F 61.0 °F 62% 30.12 in 10.0 mi NE 5.8 mph - N/A   Clear
12:53 PM 75.9 °F 62.1 °F 62% 30.10 in 10.0 mi Variable 4.6 mph - N/A   Clear
1:53 PM 77.0 °F 62.1 °F 60% 30.09 in 10.0 mi NNE 5.8 mph - N/A   Clear
2:53 PM 79.0 °F 61.0 °F 54% 30.08 in 10.0 mi ENE 6.9 mph - N/A   Clear
3:53 PM 78.1 °F 62.1 °F 58% 30.08 in 10.0 mi Variable 5.8 mph - N/A   Clear
4:53 PM 77.0 °F 62.1 °F 60% 30.09 in 10.0 mi East 5.8 mph - N/A   Clear
5:53 PM 75.9 °F 62.1 °F 62% 30.09 in 10.0 mi ENE 3.5 mph - N/A   Clear
6:53 PM 73.9 °F 63.0 °F 68% 30.11 in 10.0 mi ENE 5.8 mph - N/A   Clear
7:53 PM 73.9 °F 64.0 °F 71% 30.12 in 10.0 mi NNE 3.5 mph - N/A   Scattered Clouds
8:53 PM 73.0 °F 64.0 °F 73% 30.13 in 10.0 mi ENE 6.9 mph - N/A   Scattered Clouds
9:53 PM 72.0 °F 64.0 °F 76% 30.14 in 10.0 mi ENE 5.8 mph - N/A   Clear
10:53 PM 72.0 °F 66.0 °F 81% 30.14 in 10.0 mi ENE 4.6 mph - N/A   Clear
11:53 PM 72.0 °F 66.9 °F 84% 30.14 in 10.0 mi Calm Calm - N/A   Clear